Location: Pine Ridge Estates
(42.5164°N, 73.8156°W)
Time: 01:20:35
(UTC+00:00)

ACS3 Solar Sail - Pass Details

Date: 14 October 2024
Orbit: 961 x 1022 km, 97.5° (Epoch: 03 November)

Event Time Altitude Azimuth Distance (km) Brightness Sun altitude
Exits shadow 23:08:27 14° 89° (E) 2,566 3.3 -10.8°
Maximum altitude 23:11:17 18° 59° (ENE) 2,296 3.2 -11.4°
Drops below altitude 10° 23:15:20 10° 20° (NNE) 2,835 4.0 -12.1°
Sets 23:18:41 0° 2° (N) 3,789 4.9 -12.7°
